Location: Finnegan
(51.1333°N, 112.0833°W)
Time: 17:00:04
(UTC+00:00)

Envisat - Visible Passes

Search period start: 03 December 2022 00:00
Search period end: 13 December 2022 00:00
Orbit: 763 x 765 km, 98.2° (Epoch: 03 December)

Date Brightness Start Highest point End Pass type
(mag) Time Alt. Az. Time Alt. Az. Time Alt. Az.
03 Dec 5.2 11:02:07 10° NNE 11:04:05 20° NE 11:04:05 20° NE visible
03 Dec 3.8 12:41:01 10° N 12:44:15 33° NNW 12:44:15 33° NNW visible
04 Dec 5.7 00:02:20 10° SW 00:05:59 20° W 00:09:39 10° NW visible
04 Dec 5.9 10:26:05 10° NE 10:26:29 11° NE 10:26:29 11° NE visible
04 Dec 4.1 12:03:49 10° NNE 12:06:39 34° N 12:06:39 34° N visible
04 Dec 4.5 13:44:09 10° NNW 13:46:50 16° NW 13:46:50 16° NW visible
05 Dec 4.8 11:26:54 10° NNE 11:29:04 25° NE 11:29:04 25° NE visible
05 Dec 4.1 13:06:21 10° N 13:09:14 25° NW 13:09:14 25° NW visible
06 Dec 6.0 00:29:25 10° WSW 00:31:23 12° W 00:33:20 10° WNW visible
06 Dec 5.6 10:50:22 10° NE 10:51:30 15° NE 10:51:30 15° NE visible
06 Dec 4.1 12:28:58 10° N 12:31:39 30° N 12:31:39 30° N visible
06 Dec 4.8 14:10:34 10° NNW 14:11:50 11° NW 14:11:50 11° NW visible
07 Dec 4.6 11:51:51 10° NNE 11:54:05 27° NNE 11:54:05 27° NNE visible
07 Dec 4.5 13:31:52 10° NNW 13:34:16 18° NW 13:34:16 18° NW visible
08 Dec 5.2 11:15:03 10° NNE 11:16:31 19° NE 11:16:31 19° NE visible
08 Dec 4.3 12:54:14 10° N 12:56:42 24° NNW 12:56:42 24° NNW visible
09 Dec 5.8 00:16:19 10° WSW 00:19:14 15° W 00:22:11 10° NW visible
09 Dec 5.9 10:38:41 10° NE 10:38:58 11° NE 10:38:58 11° NE visible
09 Dec 4.4 12:16:57 10° N 12:19:08 26° N 12:19:08 26° N visible
09 Dec 4.8 13:57:47 10° NNW 13:59:19 13° NW 13:59:19 13° NW visible
10 Dec 4.9 11:39:55 10° NNE 11:41:35 21° NNE 11:41:35 21° NNE visible
10 Dec 4.5 13:19:40 10° N 13:21:46 19° NNW 13:21:46 19° NNW visible
11 Dec 5.6 11:03:13 10° NNE 11:04:03 14° NE 11:04:03 14° NE visible
11 Dec 4.5 12:42:09 10° N 12:44:13 23° N 12:44:13 23° N visible
12 Dec 5.7 00:03:34 10° SW 00:07:08 19° W 00:10:42 10° NW visible
12 Dec 4.7 12:04:57 10° NNE 12:06:41 22° N 12:06:41 22° N visible
12 Dec 4.7 13:45:21 10° NNW 13:46:52 14° NW 13:46:52 14° NW visible
